Dallesport, WA

3:41 AM PDT on September 26, 2016 (GMT -0700)
Columbia Gorge Regional-The Dalles

Weather History for KDLS - January, 2014

Change the Weather History Date:

Wednesday, January 8, 2014

  Actual Average Record
Temperature  
Mean Temperature 34 °F -  
Max Temperature 37 °F 38 °F 64 °F (2009)
Min Temperature 32 °F 26 °F 0 °F (1974)
Degree Days  
Heating Degree Days 30    
Moisture  
Dew Point 33 °F    
Average Humidity 94    
Maximum Humidity 100    
Minimum Humidity 83    
Precipitation  
Precipitation 0.38 in - - ()
Sea Level Pressure  
Sea Level Pressure 29.95 in    
Wind  
Wind Speed 1 mph (ESE)    
Max Wind Speed 9 mph    
Max Gust Speed -    
Visibility 2 miles    
Events Fog , Rain    
Averages and records for this station are not official NWS values.
T = Trace of Precipitation, MM = Missing Value Source: NWS Daily Summary

Daily Weather History Graph

Daily Weather History Graph

Search for Another Location

Airport or City:

Trip Planner

Search our weather history database for the weather conditions in past years. The results will help you decide how hot, cold, wet, or windy it might be!

Date:

Astronomy

Jan. 08, 2014 Rise Set
Actual Time 7:44 AM PST 4:38 PM PST
Civil Twilight 7:10 AM PST 5:12 PM PST
Nautical Twilight 6:33 AM PST 5:49 PM PST
Astronomical Twilight 5:57 AM PST 6:25 PM PST
Moon 11:43 AM PST (1/8) 12:44 AM PST (1/8)
Length of Visible Light 10h 02m
Length of Day
8h 54m
First Quarter, 57% of the Moon is Illuminated
Jan 8
First Quarter
Jan 15
Full
Jan 23
Last Quarter
Jan 30
New
Feb 6
First Quarter

Hourly Weather History & Observations

Time (PST) Temp. Windchill Dew Point Humidity Pressure Visibility Wind Dir Wind Speed Gust Speed Precip Events Conditions
12:53 AM 32.0 °F 28.7 °F 30.9 °F 96% 30.13 in 4.0 mi South 3.5 mph - N/A   Mostly Cloudy
1:53 AM 32.0 °F - 30.9 °F 96% 30.13 in 2.5 mi Calm Calm - N/A   Overcast
2:23 AM 32.0 °F - 30.0 °F 92% 30.12 in 3.0 mi Calm Calm - N/A   Overcast
4:41 AM 32.0 °F - 30.0 °F 92% 30.11 in 2.5 mi Calm Calm - N/A   Mostly Cloudy
6:13 AM 32.0 °F - 30.9 °F 96% 30.09 in 3.0 mi Calm Calm - N/A   Overcast
6:45 AM 32.0 °F - 30.9 °F 96% 30.09 in 3.0 mi Calm Calm - N/A   Overcast
6:53 AM 33.1 °F - 30.9 °F 92% 30.10 in 3.0 mi Calm Calm - N/A   Overcast
7:10 AM 32.0 °F - 30.9 °F 96% 30.09 in 2.5 mi Calm Calm - N/A   Overcast
7:42 AM 32.0 °F - 30.9 °F 96% 30.08 in 3.0 mi Calm Calm - N/A   Overcast
8:19 AM 33.1 °F - 30.9 °F 92% 30.07 in 1.8 mi Calm Calm - N/A   Overcast
8:21 AM 33.1 °F - 30.9 °F 92% 30.08 in 2.0 mi Calm Calm - N/A   Overcast
8:31 AM 32.0 °F - 30.9 °F 96% 30.08 in 1.5 mi Calm Calm - N/A   Overcast
8:53 AM 33.1 °F - 30.9 °F 92% 30.08 in 2.0 mi Calm Calm - N/A   Overcast
9:01 AM 33.1 °F 30.0 °F 30.9 °F 92% 30.07 in 1.5 mi ESE 3.5 mph - N/A   Overcast
9:20 AM 33.1 °F - 32.0 °F 96% 30.08 in 1.8 mi Calm Calm - N/A   Mostly Cloudy
9:32 AM 33.1 °F - 30.9 °F 92% 30.07 in 1.2 mi Calm Calm - N/A   Mostly Cloudy
9:53 AM 33.1 °F - 32.0 °F 96% 30.09 in 1.2 mi Calm Calm - N/A   Mostly Cloudy
10:26 AM 34.0 °F - 33.1 °F 96% 30.07 in 2.0 mi Calm Calm - N/A   Mostly Cloudy
10:53 AM 35.1 °F - 34.0 °F 96% 30.06 in 3.0 mi Calm Calm - N/A   Overcast
11:20 AM 36.0 °F - 34.0 °F 93% 30.03 in 3.0 mi Calm Calm - N/A   Overcast
11:51 AM 37.4 °F - 33.8 °F 87% 30.00 in 4.0 mi Calm Calm - N/A   Mostly Cloudy
11:53 AM 37.0 °F - 34.0 °F 89% 30.01 in 4.0 mi Calm Calm - N/A   Mostly Cloudy
12:22 PM 37.0 °F - 33.1 °F 86% 29.98 in 5.0 mi Calm Calm - N/A   Scattered Clouds
12:53 PM 37.0 °F - 33.1 °F 86% 29.97 in 6.0 mi Calm Calm - N/A   Mostly Cloudy
1:53 PM 37.9 °F 35.5 °F 33.1 °F 83% 29.93 in 6.0 mi SSE 3.5 mph - N/A   Haze
2:18 PM 37.9 °F - 33.1 °F 83% 29.91 in 6.0 mi Calm Calm - N/A   Haze
2:53 PM 37.9 °F 35.5 °F 34.0 °F 86% 29.90 in 5.0 mi ESE 3.5 mph - N/A   Overcast
3:04 PM 37.9 °F - 34.0 °F 86% 29.89 in 5.0 mi Calm Calm - N/A   Overcast
3:50 PM 37.4 °F - 33.8 °F 87% 29.88 in 4.0 mi Calm Calm - 0.00 in   Overcast
3:53 PM 37.9 °F - 34.0 °F 86% 29.88 in 4.0 mi Calm Calm - 0.01 in   Overcast
4:23 PM 37.0 °F - 35.1 °F 93% 29.87 in 2.5 mi Calm Calm - 0.01 in Rain Light Rain
4:41 PM 37.0 °F 34.5 °F 35.1 °F 93% 29.87 in 4.0 mi SE 3.5 mph - 0.02 in Rain Light Rain
4:53 PM 37.0 °F - 35.1 °F 93% 29.88 in 3.0 mi Calm Calm - 0.03 in Rain Light Rain
5:31 PM 36.0 °F 33.3 °F 35.1 °F 97% 29.88 in 2.5 mi NNW 3.5 mph - 0.03 in Rain Light Rain
5:53 PM 36.0 °F 33.3 °F 35.1 °F 97% 29.88 in 2.5 mi ESE 3.5 mph - 0.05 in Rain Light Rain
6:03 PM 36.0 °F - 35.1 °F 97% 29.87 in 3.0 mi Calm Calm - 0.01 in Rain Light Rain
6:10 PM 36.0 °F 29.0 °F 35.1 °F 97% 29.84 in 2.5 mi SE 9.2 mph - 0.03 in Rain Light Rain
6:21 PM 36.0 °F - 35.1 °F 97% 29.86 in 2.5 mi Calm Calm - 0.03 in Rain Light Rain
6:40 PM 35.1 °F 30.1 °F 34.0 °F 96% 29.84 in 1.8 mi NE 5.8 mph - 0.03 in   Mostly Cloudy
6:53 PM 35.1 °F 31.0 °F 33.1 °F 92% 29.85 in 2.0 mi East 4.6 mph - 0.03 in   Scattered Clouds
7:09 PM 34.0 °F 31.0 °F 33.1 °F 96% 29.83 in 1.8 mi North 3.5 mph - N/A   Partly Cloudy
7:37 PM 33.1 °F 30.0 °F 33.1 °F 100% 29.83 in 1.0 mi Variable 3.5 mph - N/A   Scattered Clouds
7:46 PM 34.0 °F 31.0 °F 33.1 °F 96% 29.83 in 1.2 mi NNW 3.5 mph - 0.00 in   Mostly Cloudy
7:53 PM 34.0 °F - 34.0 °F 100% 29.85 in 2.0 mi Calm Calm - 0.00 in   Mostly Cloudy
8:27 PM 35.1 °F 31.0 °F 34.0 °F 96% 29.84 in 2.5 mi South 4.6 mph - 0.01 in Rain Light Rain
8:36 PM 35.1 °F 31.0 °F 35.1 °F 100% 29.84 in 2.0 mi WSW 4.6 mph - 0.02 in Rain Light Rain
8:44 PM 35.1 °F - 34.0 °F 96% 29.85 in 1.8 mi Calm Calm - 0.02 in Rain Light Rain
8:53 PM 35.1 °F 31.0 °F 34.0 °F 96% 29.86 in 1.5 mi NW 4.6 mph - 0.03 in Rain Light Rain
9:18 PM 35.1 °F - 34.0 °F 96% 29.85 in 1.2 mi Calm Calm - 0.09 in Rain Rain
9:53 PM 36.0 °F 33.3 °F 35.1 °F 97% 29.88 in 1.2 mi NNE 3.5 mph - 0.22 in Rain Light Rain
10:33 PM 34.0 °F 31.0 °F 33.1 °F 96% 29.87 in 0.8 mi ESE 3.5 mph - 0.01 in   Mist
10:40 PM 34.0 °F 31.0 °F 33.1 °F 96% 29.88 in 1.0 mi East 3.5 mph - 0.01 in   Scattered Clouds
10:53 PM 34.0 °F - 33.1 °F 96% 29.89 in 1.5 mi Calm Calm - 0.01 in   Partly Cloudy
11:07 PM 33.1 °F - 30.9 °F 92% 29.88 in 0.5 mi Calm Calm - N/A Fog Fog
11:28 PM 33.1 °F - 32.0 °F 96% 29.88 in 0.2 mi Calm Calm - N/A Fog Fog
11:48 PM 32.0 °F 27.5 °F 32.0 °F 100% 29.89 in 0.5 mi SW 4.6 mph - N/A Fog Fog
11:53 PM 33.1 °F 30.0 °F 32.0 °F 96% 29.91 in 0.8 mi WSW 3.5 mph - N/A   Scattered Clouds